631  
ASUS46 KPDT 032225  
RWRPDT  
PENDLETON REGIONAL WEATHER ROUNDUP  
NATIONAL WEATHER SERVICE PENDLETON OREGON  
200 PM PST TUE MAR 3 2015  
 
NOTE: FAIR INDICATES FEW OR NO CLOUDS BELOW 12,000 FEET WITH NO  
SIGNIFICANT WEATHER AND/OR S TO VISIBILITY
.  
 
# INDICATES UNOFFICIAL STATION AND DATA  
 
WAZ520-032310-  
EAST SLOPES OF WASHINGTON CASCADES  
 
CITY SKY/WX TMP DP RH WIND PRES REMARKS
 
#BUMPING DAM N/A 42 N/A N/A S2 N/A  
#CLE ELUM HS N/A 47 19 32 CALM 30.07F  
#CLE ELUM LAKE N/A 43 18 36 CALM 30.17F  
#CLIFFDEL 2NW N/A 46 20 35 S1 N/A  
#GLENWOOD N/A 47 22 37 SE1 30.19F  
#MANASTASH CYN N/A 42 18 38 N3 30.08F  
#NELSON N/A 45 22 40 CALM 30.19F  
#NELSON 3SW N/A 39 22 50 CALM 30.40F  
#NILE N/A 43 20 39 E3 29.43F  
#RONALD 2NW N/A 42 26 53 NW2 29.94F  
#SNOWDEN N/A 44 6 20 SE2 N/A  
#TEANAWAY 4NE N/A 44 24 45 CALM N/A  
#TROUT LAKE 1NE N/A 44 21 40 E7 30.20F  

 
 
WAZ521-032310-  
SIMCOE HIGHLANDS  
 
CITY SKY/WX TMP DP RH WIND PRES REMARKS
 
#BICKLETON HS N/A 36 11 35 S3 N/A  
#CENTERVILLE 4W N/A 44 24 45 S5 29.91F  
#CENTERVILLE 1SWN/A 42 21 43 SE1 30.20F  
#GOLDENDALE N/A 43 16 33 SW2 N/A  
#GOLDENDALE 1NE N/A 43 12 28 SE2 N/A  
#GOLDENDALE 5WNWN/A 43 21 41 S3 30.18F  
#GOODNOE HILLS N/A 48 16 27 S3 N/A  
#LYLE 6NE N/A 44 20 38 E2 30.19F  

 
 
WAZ026-032310-  
KITTITAS VALLEY  
 
CITY SKY/WX TMP DP RH WIND PRES REMARKS
 
ELLENSBURG AP SUNNY 46 15 28 VRB3 30.16F  
#ELLENSBURG CWU N/A 44 17 33 S2 30.16F  
#ELLENSBURG 3NE N/A 42 19 39 CALM 30.14F  
#KITTITAS 4N N/A 43 20 39 W1 28.46F  
#KITTITAS 3S N/A 43 19 38 CALM 30.21F  
#THORP 6N N/A 41 21 44 E2 30.22F  

 
 
WAZ027-032310-  
YAKIMA VALLEY  
 
CITY SKY/WX TMP DP RH WIND PRES REMARKS
 
SUNNYSIDE AP SUNNY 45 9 22 E5 30.21F  
YAKIMA AIRPORT SUNNY 47 13 25 CALM 30.19F  
YAKIMA-VAGABOND SUNNY 44 14 29 W7 30.18F  
#DONALD 2NE N/A 58 -16 4 CALM 29.04F  
#MABTON N/A 46 14 27 N2 30.21F  
#NACHES 2SW N/A 44 20 38 SE3 30.16F  
#OUTLOOK DOT N/A N/A N/A N/A S2 N/A  
#SELAH 8E N/A 44 12 27 SW6 N/A  
#TERRACE HTS N/A 49 16 26 CALM 30.19F  
#TOPPENISH N/A 46 14 27 CALM 30.13F  
#WAPATO 4NE N/A 58 -16 4 CALM 29.04F  
#WEST VALLEY N/A 45 15 29 SE2 30.20F  
#W YAKIMA N/A 45 16 31 SE2 30.23F  
#WHITE SWAN 5E N/A 46 17 31 E9 30.22F  
#WILEY CITY 3W N/A 45 9 22 S5 30.21F  

 
 
WAZ028-032310-  
LOWER COLUMBIA BASIN...WASHINGTON  
 
CITY SKY/WX TMP DP RH WIND PRES REMARKS
 
HANFORD MOSUNNY 47 0 14 SW5 30.24F  
PASCO SUNNY 47 13 25 CALM 30.25F  
PROSSER AWOS N/A 48 10 21 NW2 30.25F  
RICHLAND AWOS SUNNY 50 12 21 CALM 30.24F  
#BASIN CITY 5SW N/A 46 10 23 CALM 30.22F  
#BENTON CITY N/A 45 3 17 N2 30.15F  
#CONNELL 5N N/A 46 12 25 W1 30.24F  
#CONNELL 5NW N/A 43 14 30 N3 30.21F  
#ELTOPIA N/A 49 14 24 CALM 30.21F  
#ELTOPIA 6NW N/A 47 11 23 W7 29.17F  
#KAHLOTUS N/A 41 13 31 N8 30.24F  
#KENNEWICK 3S N/A 48 16 27 CALM 30.26F  
#PASCO-BROADMOORN/A 53 11 18 S1 30.16S  
#PATERSON N/A 46 16 30 SW2 30.22F  
#PROSSER N/A 46 7 20 NW3 30.23F  
#SAGEMOOR 2W N/A 45 13 27 CALM 30.09F  
#TOUCHET 2S N/A 46 18 32 W2 30.24S  
#WEST PASCO N/A 49 20 31 SW1 30.26F  

 
 
WAZ029-032310-  
FOOTHILLS OF THE BLUES...WASHINGTON  
 
CITY SKY/WX TMP DP RH WIND PRES REMARKS
 
WALLA WALLA AP SUNNY 44 18 35 E5 30.21S  
#DAYTON SCHOOL N/A 40 15 36 SW6 30.18F  
#LOWDEN 2SE N/A 46 22 38 W6 30.20F  
#PLEASANT VIEW 1N/A 41 15 34 NW3 30.29F  
#PRESCOTT N/A 45 22 40 W1 30.24F  
#SUDBURY N/A 47 N/A N/A CALM N/A  
#WHITMAN COLLEGEN/A 43 22 43 NW2 30.30F  
#WAITSBURG 5S N/A 39 20 46 W2 30.35F  
#WAITSBURG 8N N/A 46 7 20 W3 30.03F  
#WALLA WALLA 5E N/A 44 22 41 SW1 N/A  
#WALLA WALLA U N/A 44 22 41 CALM 30.25F  
#WHITMAN MISSIONN/A 46 23 40 SW2 30.27S  

 
 
WAZ030-032310-  
BLUE MOUNTAINS...WASHINGTON  
 
CITY SKY/WX TMP DP RH WIND PRES REMARKS
 
#DIXIE 5SE N/A 32 13 45 NW1 30.05F  
#SKI BLUEWOOD N/A 28 15 58 N7 30.03F  

 
 
ORZ009-041-WAZ024-032310-  
COLUMBIA RIVER GORGE  
 
CITY SKY/WX TMP DP RH WIND PRES REMARKS
 
HOOD RIVER AP SUNNY 50 18 28 E7 30.19F  
THE DALLES AP SUNNY 52 17 25 E7 30.22F  
#ARLINGTON AIRPON/A 45 22 40 N3 30.01R  
#ARLINGTON HS N/A 48 16 27 CALM 30.15F  
#CELILO DOT N/A 51 20 29 NE2 N/A  
#MOSIER 1S N/A 51 12 21 NE5 30.18F  
#MURDOCK N/A 53 20 27 SW5 30.23F  
#RUFUS DOT N/A N/A N/A N/A CALM N/A  
 

 
 
ORZ510-032310-  
NORTH CENTRAL OREGON  
 
CITY SKY/WX TMP DP RH WIND PRES REMARKS
 
#CHENOWITH 1W N/A 45 21 38 E7 N/A  
#COW CYN RST AREN/A 42 18 38 SW1 N/A  
#DUFUR 9E N/A 40 18 41 N3 30.27F  
#GRASS VALLEY 1SN/A 43 22 43 CALM 30.24F  
#KENT DOT N/A 42 12 29 CALM N/A  
#MAUPIN SCHOOL N/A 48 17 29 S1 30.20F  
#MORO SCHOOL N/A 43 23 45 CALM 30.17F  
#SHANIKO 5WSW N/A 39 12 32 W3 N/A  
#SHANIKO 4NW N/A 37 18 46 N6 30.12S  
#TYGH VALLEY 2NEN/A 47 21 35 S2 30.20F  
#WAPANITIA AIRPON/A 45 22 40 E1 30.22F  
#WASCO 5NE N/A 44 21 40 CALM 30.24F  

 
 
ORZ511-032310-  
CENTRAL OREGON  
 
CITY SKY/WX TMP DP RH WIND PRES REMARKS
 
BEND AIRPORT SUNNY 41 14 33 N5 30.09F  
MADRAS AIRPORT SUNNY 43 16 33 N6 30.16F  
PRINEVILLE AP SUNNY 43 18 36 SW7 30.10F  
REDMOND AIRPORT SUNNY 43 16 33 N8 30.11F  
#BEND 6E N/A 42 13 30 CALM 30.15F  
#BEND 1SW N/A 40 19 42 E2 N/A  
#BEND-AWBREY N/A 41 19 41 N3 30.18F  
#BEND-KIM LN N/A 43 20 39 NW3 30.06F  
#CROOKED RVR RANN/A 43 18 36 N14G24 30.19F WCI 36  
#CULVER N/A 43 17 35 E3 30.09F  
#LAKE BILLY CHINN/A 42 -12 9 N5 30.18F  
#POWELL BUTTE 3EN/A 41 17 37 N5 N/A  
#POWELL BUTTE N/A 46 21 37 N2 29.72F  
#PRINEVILLE 3N N/A 45 20 36 W7 30.13F  
#WARM SPRINGS N/A 48 20 33 N1 30.13F  
 

 
 
 
ORZ509-032310-  
EAST SLOPES OF OREGON CASCADES  
 
CITY SKY/WX TMP DP RH WIND PRES REMARKS
 
#BLUE BOX PASS N/A 42 -8 11 CALM N/A  
#CAMP SHERMAN N/A 49 13 23 CALM 30.16F  
#LA PINE 4NW N/A 42 17 36 CALM 30.19F  
#MT BACHELOR-MIDN/A 30 12 46 CALM N/A  
#SISTERS AIRPOR N/A 43 21 41 N2 30.17S  
#SISTERS ODOT N/A 46 N/A N/A CALM N/A  
#SISTERS 3N N/A 45 17 32 E2 30.10F  
#SUNRIVER N/A 42 19 39 E2 30.06F  
#TUMALO 3W N/A 41 16 36 N3 30.07F  
#WANOGA BUTTE D N/A 34 12 40 SE3 N/A  
 

 
 
ORZ044-032310-  
LOWER COLUMBIA BASIN...OREGON  
 
CITY SKY/WX TMP DP RH WIND PRES REMARKS
 
HERMISTON N/A 46 16 30 MISG 30.22F  
#BOARDMAN 8SW N/A 48 19 31 W1 30.23F  
#IONE SCHOOL N/A 44 20 38 E2 30.18F  
#IRRIGON 4NW N/A 49 15 25 N3 N/A  
#UMATILLA SCHOOLN/A 49 25 39 N1 30.21F  
#UMATILLA N/A 50 20 30 CALM 30.20F  

 
 
ORZ507-032310-  
NORTHERN FOOTHILLS OF THE BLUES  
 
CITY SKY/WX TMP DP RH WIND PRES REMARKS
 
PENDLETON AIRPT MOSUNNY 42 17 36 VRB6 30.19F  
#ADAMS 3WNW N/A 42 17 36 NE3 30.24F  
#ATHENA N/A 41 18 39 NW3 30.27F  
#CAYUSE N/A 40 21 46 N1 30.24F  
#HELIX SCHOOL N/A 42 17 36 N2 30.24F  
#HELIX 3N N/A 39 14 35 N6 30.14S  
#HELIX 6SW N/A 42 18 38 SW6 30.17  
#HOLDMAN 5SE N/A 45 20 36 E5 30.19F  
#HOLDMAN 6E N/A 41 15 34 E5 30.06S  
#M-F FERNDALE N/A 47 19 32 CALM 30.20F  
#PENDLETON DNTN N/A 48 22 35 NW2 30.19F  
#PDT AQUATIC CTRN/A 48 25 40 N2 30.19F  
#PENDLETON 5NE N/A 42 23 46 CALM 30.15F  
#PDT SUNRIDGE N/A 44 21 40 W6 30.21F  
#PENDLETON 7NW N/A 46 23 40 CALM 25.41  
#PILOT ROCK N/A 42 17 36 N1 30.19F  
#TUTUILLA N/A 44 19 36 W3 30.23F  
#UMAPINE 2E N/A 46 22 38 CALM 30.19F  
#WESTON SCHOOL N/A 39 9 28 N1 30.14F  
 

 
 
ORZ508-032310-  
SOUTHERN FOOTHILLS OF THE BLUES  
 
CITY SKY/WX TMP DP RH WIND PRES REMARKS
 
LEXINGTON SUNNY 45 19 35 NW3 30.20F  
#AJAX N/A 41 15 34 CALM 30.09F  
#CONDON SCHOOL N/A 40 22 48 CALM 30.09F  
#CONDON 5W N/A 38 18 44 N2 30.09F  
#FOSSIL SCHOOL N/A 40 18 41 N5 30.10F  
#HEPPNER EOC N/A 41 20 43 W7 30.19F  
#HEPPNER 4NE N/A 37 18 46 CALM 30.25F  
#LEXINGTON 2SE N/A 45 20 36 E1 30.14F  
#MIKKALO N/A 47 18 31 NE2 30.18F  
#OLEX 4N N/A 43 18 36 CALM 30.20F  
#RUGGS 5NE N/A 43 20 39 N2 30.30S  
#RUGGS 2SW N/A 38 20 48 E7 30.26F  
 

 
 
ORZ502-503-032310-  
BLUE MOUNTAINS  
 
CITY SKY/WX TMP DP RH WIND PRES REMARKS
 
MEACHAM SUNNY 33 13 43 VRB6 30.10S  
#BATTLE MTN DOT N/A 30 19 63 N3 N/A  
#HEPPNER 15SE N/A 31 19 61 CALM 30.00F  
#LADD CYN SMT N/A 36 9 32 NW15 N/A WCI 27  
#LADD CREEK ODOTN/A 38 14 37 NE13 N/A WCI 30  
#LONG CREEK HS N/A 35 21 56 CALM 30.04F  
#N POWDER DOT N/A 39 15 37 N16G24 N/A WCI 30  
#PIKES PEAK N/A 30 14 51 W1 27.99S  
#TROY SCHOOL N/A 44 22 41 N3 30.01F  
#UKIAH N/A 34 19 54 N8 30.28F  
#WESTON 4E N/A 35 17 47 N1 30.21S  

 
 
ORZ505-032310-  
JOHN DAY BASIN  
 
CITY SKY/WX TMP DP RH WIND PRES REMARKS
 
JOHN DAY SUNNY 39 18 42 NW10 30.09S  
#JOHN DAY KJDY N/A 41 34 76 SW7 30.11F  
#MITCHELL N/A 41 22 46 NW2 30.24F  
#MONUMENT HS N/A 43 16 33 S2 30.14F  
#MT. VERNON 5SE N/A 36 18 47 N2 30.03S  
#SPRAY SCHOOL N/A 46 N/A N/A CALM N/A  
#WINLOCK N/A 38 15 38 N5 30.19S  

 
 
ORZ506-032310-  
OCHOCO AND JOHN DAY HIGHLANDS  
 
CITY SKY/WX TMP DP RH WIND PRES REMARKS
 
#BUCK CREEK DOT N/A 37 37 100 CALM N/A  
#HORSE RIDGE DO N/A 38 15 38 NW7 N/A  
#KEYES SMT DOT N/A 35 17 47 CALM N/A  
#PAULINA SCHOOL N/A 42 16 34 N3 30.04F  
#PINE MTN OBS N/A 30 16 55 NW2 N/A  
#SENECA N/A 32 N/A N/A N6 N/A  
#SENECA 9NW N/A 36 16 44 SE1 30.18S  

 
 
ORZ049-032310-  
GRANDE RONDE VALLEY  
 
CITY SKY/WX TMP DP RH WIND PRES REMARKS
 
LA GRANDE SUNNY 41 10 27 NW16 30.10S WCI 33  
#COVE N/A 40 19 42 NW9 30.09S  
#COVE SCHOOL N/A 40 17 39 NW2 30.06S  
#ELGIN 3N N/A 39 0 19 W3 30.07S  
#ELGIN 1E N/A 40 16 37 W7 N/A  
#IMBLER SCHOOL N/A 37 14 38 N6 30.06S  
#ISLAND CITY 4N N/A 54 33 45 CALM 30.19F  
#LADD CYN DOT N/A 39 13 34 NW13 N/A WCI 31  
#UNION 1S N/A 40 15 36 W7 30.10S  

 
 
ORZ050-032310-  
WALLOWA COUNTY  
 
CITY SKY/WX TMP DP RH WIND PRES REMARKS
 
JOSEPH AIRPORT SUNNY 36 10 33 N12 30.05S WCI 28  
#ENTERPRISE HS N/A 36 14 40 N7 30.03F  
#IMNAHA SCHOOL N/A 42 18 38 N6 30.10F  
#IMNAHA 10S N/A 36 18 47 NE2 30.07F  
#JOSEPH 3N N/A 35 18 49 N5 30.06F  
#JOSEPH 3W N/A 34 2 25 CALM 29.87S  
#LOSTINE N/A 38 11 32 N2 29.98S  
#MT HOWARD 8000 N/A 17 14 88 NW3 29.83R  
#PROMISE 1S N/A 35 11 36 SW8 30.27F  
#SHEEP RDG 7000 N/A 17 15 92 CALM 30.27S  
#WALLOWA SCHOOL N/A 40 13 33 W2 31.13F  
 

 
 
CLICK HERE TO GO TO PREVIOUS BULLETINS.

The Nexlab OR Page
The Nexlab WA Page Main Text Page